Molokai, HI

8:39 PM HST on March 24, 2017 (GMT -1000)
Molokai

Weather History for PHMK - July, 2014

Change the Weather History Date:

Wednesday, July 23, 2014

  Actual Average Record
Temperature  
Mean Temperature 78 °F -  
Max Temperature 82 °F 84 °F 90 °F (1967)
Min Temperature 73 °F 71 °F 66 °F (1959)
Cooling Degree Days 12    
Growing Degree Days 28 (Base 50)    
Moisture  
Dew Point 71 °F    
Average Humidity 79    
Maximum Humidity 87    
Minimum Humidity 63    
Precipitation  
Precipitation 0.01 in - - ()
Sea Level Pressure  
Sea Level Pressure 30.05 in    
Wind  
Wind Speed 14 mph (NE)    
Max Wind Speed 21 mph    
Max Gust Speed 32 mph    
Visibility 10 miles    
Events      
Averages and records for this station are not official NWS values.
T = Trace of Precipitation, MM = Missing Value Source: NWS Daily Summary

Daily Weather History Graph

Daily Weather History Graph

Search for Another Location

Airport or City:

Trip Planner

Search our weather history database for the weather conditions in past years. The results will help you decide how hot, cold, wet, or windy it might be!

Date:

Astronomy

Jul. 23, 2014 Rise Set
Actual Time 5:58 AM HST 7:10 PM HST
Civil Twilight 5:34 AM HST 7:34 PM HST
Nautical Twilight 5:06 AM HST 8:03 PM HST
Astronomical Twilight 4:36 AM HST 8:32 PM HST
Moon 3:24 AM HST (7/23) 4:50 PM HST (7/23)
Length of Visible Light 14h 00m
Length of Day
13h 12m
Waning Crescent, 8% of the Moon is Illuminated
Jul 23
Waning Crescent
Jul 26
New
Aug 3
First Quarter
Aug 10
Full
Aug 17
Last Quarter

Hourly Weather History & Observations

Time (HST) Temp. Heat Index Dew Point Humidity Pressure Visibility Wind Dir Wind Speed Gust Speed Precip Events Conditions
12:54 AM 75.0 °F - 71.1 °F 87% 30.05 in 10.0 mi NE 10.4 mph - N/A   Clear
1:54 AM 75.0 °F - 70.0 °F 84% 30.04 in 10.0 mi NE 10.4 mph 19.6 mph N/A   Clear
2:54 AM 75.0 °F - 71.1 °F 87% 30.02 in 10.0 mi NNE 15.0 mph 21.9 mph N/A   Clear
3:54 AM 75.0 °F - 71.1 °F 87% 30.01 in 10.0 mi NE 10.4 mph 24.2 mph N/A   Clear
4:54 AM 73.9 °F - 70.0 °F 87% 30.01 in 10.0 mi NE 11.5 mph 23.0 mph N/A   Clear
5:54 AM 75.0 °F - 71.1 °F 87% 30.03 in 10.0 mi NNE 13.8 mph 21.9 mph N/A   Clear
6:54 AM 75.9 °F - 68.0 °F 76% 30.05 in 10.0 mi NE 8.1 mph - N/A   Clear
7:54 AM 79.0 °F - 70.0 °F 74% 30.07 in 10.0 mi NE 15.0 mph 23.0 mph N/A   Clear
8:54 AM 79.0 °F - 71.1 °F 77% 30.07 in 10.0 mi NE 19.6 mph 32.2 mph N/A   Partly Cloudy
9:54 AM 80.1 °F 83.8 °F 72.0 °F 76% 30.08 in 10.0 mi NE 15.0 mph 28.8 mph N/A   Partly Cloudy
10:54 AM 82.9 °F 86.5 °F 69.1 °F 63% 30.08 in 10.0 mi NE 15.0 mph 25.3 mph N/A   Mostly Cloudy
11:54 AM 82.9 °F 87.0 °F 70.0 °F 65% 30.06 in 10.0 mi NE 18.4 mph 28.8 mph N/A   Partly Cloudy
12:54 PM 82.9 °F 87.5 °F 71.1 °F 67% 30.06 in 10.0 mi NE 20.7 mph 32.2 mph N/A   Partly Cloudy
1:54 PM 82.9 °F 88.0 °F 72.0 °F 69% 30.05 in 10.0 mi NE 17.3 mph 27.6 mph N/A   Partly Cloudy
2:54 PM 82.9 °F 88.0 °F 72.0 °F 69% 30.04 in 10.0 mi NE 15.0 mph 31.1 mph N/A   Partly Cloudy
3:54 PM 82.0 °F 86.3 °F 71.1 °F 69% 30.03 in 10.0 mi NE 19.6 mph 31.1 mph N/A   Clear
4:54 PM 81.0 °F 85.2 °F 72.0 °F 74% 30.02 in 10.0 mi NE 18.4 mph 25.3 mph N/A   Clear
5:22 PM 78.8 °F - 73.4 °F 83% 30.01 in 10.0 mi NE 16.1 mph 24.2 mph N/A   Scattered Clouds
5:54 PM 78.1 °F - 73.0 °F 84% 30.03 in 10.0 mi NE 12.7 mph 23.0 mph N/A   Scattered Clouds
6:54 PM 77.0 °F - 72.0 °F 84% 30.05 in 10.0 mi NE 13.8 mph 27.6 mph N/A   Clear
7:54 PM 75.9 °F - 71.1 °F 85% 30.07 in 10.0 mi NE 18.4 mph 26.5 mph N/A   Clear
8:54 PM 75.9 °F - 71.1 °F 85% 30.09 in 10.0 mi NE 15.0 mph 21.9 mph N/A   Clear
9:54 PM 75.9 °F - 71.1 °F 85% 30.09 in 10.0 mi NE 16.1 mph 26.5 mph N/A   Clear
10:54 PM 75.9 °F - 72.0 °F 87% 30.09 in 10.0 mi NE 16.1 mph 24.2 mph N/A   Mostly Cloudy
11:54 PM 75.9 °F - 72.0 °F 87% 30.09 in 10.0 mi NE 15.0 mph 21.9 mph 0.01 in   Partly Cloudy